Starlink 31795

operational
NORAD ID: 59645 Int'l Des: 2024-082 Owner: SPXS Country: US Constellation: starlink
LEOCIRCULAR

Über Starlink 31795

Beschreibung wird geladen...

Live-Position

3D-Globus wird geladen...

Nächste Überflüge

Höhenverlauf

Altitude vs Time

uPlot chart will show altitude changes over time

Zweizeiliger Elementsatz

1 59645U 24082Q 25351.58682378 -.00003997 00000-0 -13581-3 0 9999
2 59645 43.0023 184.9129 0000556 283.1441 76.9349 15.27576894 92920
Epoch: 17. Dez. 2025 • Age: 11 hours

Aktueller Status

Höhe 485.5 km
Geschwindigkeit 7.62 km/s
Subsatellitenpunkt -14.14°S, 65.2°E
Startdatum 3. Mai 2024
Alter 1.6 years
Typ internet

Technische Details

Klassifizierung Payload
Masse 730.00 kg
Trockenmasse 700.00 kg
Gesamtmasse 730.00 kg
Länge 0.30 m
Durchmesser 4.10 m
Spannweite 29.00 m
Form Box + pan
Hersteller SPXS
Bus-Typ Starlink V2M
Phasenstatus In Orbit
Besitzer/Staat SPXS/US

Große Konstellationen

Loading constellations...